SCP
0 0 0 0 0 0 0 0 0 0 0 0 0 0 0 0 0 0 0 0 0 0 0 0 0 0 0 0 0 0 0 0 0 0 0 0 0 0 0 0 0 0 0 0
0 0 0 0 0 0 0 0 0 0 0 0 0 0 0 0 0 0 0 0 0 0 0 0 0 0 0 0 0 0 0 0 0 0 0 0 0 0 0 0 0 0 0 0
0 0 0 0 0 0 0 0 0 0 0 0 0 0 0 0 0 0 0 0 0 0 0 0 0 0 0 0 0 0 0 0 0 0 0 0 0 0 0 0 0 0 0 0
0 0 0 0 0 0 0 0 0 0 0 0 0 0 0 0 0 0 0 0 0 0 0 0 0 0 0 0 0 0 0 0 0 0 0 0 0 0 0 0 0 0 0 0
0 0 0 0 0 0 0 0 0 0 0 0 0 0 0 0 0 0 0 0 0 0 0 0 0 0 0 0 0 0 0 0 0 0 0 0 0 0 0 0 0 0 0 0
0 0 0 0 0 0 0 0 0 0 0 0 0 0 0 0 0 0 0 0 0 0 0 0 0 0 0 0 0 0 0 0 0 0 0 0 0 0 0 0 0 0 0 0
0 0 0 0 0 0 0 0 0 0 0 0 0 0 0 0 0 0 0 0 0 0 0 0 0 0 0 0 0 0 0 0 0 0 0 0 0 0 0 0 0 0 0 0
0 0 0 0 0 0 0 0 0 0 0 0 0 0 0 0 0 0 0 0 0 0 0 0 0 0 0 0 0 0 0 0 0 0 0 0 0 0 0 0 0 0 0 0
0 0 0 0 0 0 0 0 0 0 0 0 0 0 0 0 0 0 0 0 0 0 0 0 0 0 0 0 0 0 0 0 0 0 0 0 0 0 0 0 0 0 0 0
0 0 0 0 0 0 0 0 0 0 0 0 0 0 0 0 0 0 0 0 0 0 0 0 0 0 0 0 0 0 0 0 0 0 0 0 0 0 0 0 0 0 0 0
0 0 0 0 0 0 0 0 0 0 0 0 0 0 0 0 0 0 0 0 0 0 0 0 0 0 0 0 0 0 0 0 0 0 0 0 0 0 0 0 0 0 0 0
0 0 0 0 0 0 0 0 0 0 0 0 0 0 0 0 0 0 0 0 0 0 0 0 0 0 0 0 0 0 0 0 0 0 0 0 0 0 0 0 0 0 0 0
0 0 0 0 0 0 0 0 0 0 0 0 0 0 0 0 0 0 0 0 0 0 0 0 0 0 0 0 0 0 0 0 0 0 0 0 0 0 0 0 0 0 0 0
0 0 0 0 0 0 0 0 0 0 0 0 0 0 0 0 0 0 0 0 0 0 0 0 0 0 0 0 0 0 0 0 0 0 0 0 0 0 0 0 0 0 0 0
0 0 0 0 0 0 0 0 0 0 0 0 0 0 0 0 0 0 0 0 0 0 0 0 0 0 0 0 0 0 0 0 0 0 0 0 0 0 0 0 0 0 0 0
0 0 0 0 0 0 0 0 0 0 0 0 0 0 0 0 0 0 0 0 0 0 0 0 0 0 0 0 0 0 0 0 0 0 0 0 0 0 0 0 0 0 0 0
0 0 0 0 0 0 0 0 0 0 0 0 0 0 0 0 0 0 0 0 0 0 0 0 0 0 0 0 0 0 0 0 0 0 0 0 0 0 0 0 0 0 0 0
0 0 0 0 0 0 0 0 0 0 0 0 0 0 0 0 0 0 0 0 0 0 0 0 0 0 0 0 0 0 0 0 0 0 0 0 0 0 0 0 0 0 0 0
0 0 0 0 0 0 0 0 0 0 0 0 0 0 0 0 0 0 0 0 0 0 0 0 0 0 0 0 0 0 0 0 0 0 0 0 0 0 0 0 0 0 0 0
0 0 0 0 0 0 0 0 0 0 0 0 0 0 0 0 0 0 0 0 0 0 0 0 0 0 0 0 0 0 0 0 0 0 0 0 0 0 0 0 0 0 0 0
0 0 0 0 0 0 0 0 0 0 0 0 0 0 0 0 0 0 0 0 0 0 0 0 0 0 0 0 0 0 0 0 0 0 0 0 0 0 0 0 0 0 0 0
0 0 0 0 0 0 0 0 0 0 0 0 0 0 0 0 0 0 0 0 0 0 0 0 0 0 0 0 0 0 0 0 0 0 0 0 0 0 0 0 0 0 0 0
0 0 0 0 0 0 0 0 0 0 0 0 0 0 0 0 0 0 0 0 0 0 0 0 0 0 0 0 0 0 0 0 0 0 0 0 0 0 0 0 0 0 0 0
0 0 0 0 0 0 0 0 0 0 0 0 0 0 0 0 0 0 0 0 0 0 0 0 0 0 0 0 0 0 0 0 0 0 0 0 0 0 0 0 0 0 0 0
0 0 0 0 0 0 0 0 0 0 0 0 0 0 0 0 0 0 0 0 0 0 0 0 0 0 0 0 0 0 0 0 0 0 0 0 0 0 0 0 0 0 0 0
0 0 0 0 0 0 0 0 0 0 0 0 0 0 0 0 0 0 0 0 0 0 0 0 0 0 0 0 0 0 0 0 0 0 0 0 0 0 0 0 0 0 0 0
0 0 0 0 0 0 0 0 0 0 0 0 0 0 0 0 0 0 0 0 0 0 0 0 0 0 0 0 0 0 0 0 0 0 0 0 0 0 0 0 0 0 0 0
Wind_Speed
9 6 6 8 9 11 13 12 11 8 7 5 6 9 11 14 15 16 16 16 16 16 15 14 14 13 13 12 12 11 10 9 8 8 7 6 6 6 5 4 4 4 4 4
9 8 8 9 10 11 13 12 12 11 9 5 4 7 10 14 16 16 17 17 17 17 16 16 15 14 13 12 12 11 11 10 9 8 8 7 7 6 6 5 4 4 5 5
9 7 9 12 11 12 12 11 11 12 9 4 6 9 11 14 16 16 17 17 18 17 17 16 15 14 14 13 12 12 11 10 9 9 8 8 7 7 6 6 5 5 5 5
8 7 12 5 2 6 10 11 11 10 8 7 7 7 9 11 14 15 16 16 16 16 16 15 15 14 13 13 12 12 11 10 10 9 9 8 8 7 7 6 6 6 6 6
8 10 10 6 4 5 8 8 6 8 7 6 4 6 8 10 12 13 14 15 15 15 16 15 15 14 14 13 13 12 12 11 10 10 9 9 8 8 7 6 6 7 7 7
8 9 8 2 2 1 6 7 1 3 4 4 6 8 6 9 11 11 11 12 13 14 14 14 14 14 14 14 13 13 12 11 10 10 9 9 8 7 7 6 7 7 7 7
10 9 5 4 2 4 7 2 5 4 2 3 5 3 3 8 10 10 11 12 13 14 13 14 14 14 14 13 13 12 11 10 10 10 9 9 7 7 7 7 7 7 7 7
7 9 3 4 0 2 5 5 5 5 3 3 2 1 3 7 9 10 11 12 13 13 12 12 14 14 13 13 12 11 10 10 10 9 9 8 8 7 7 7 8 8 8 9
3 1 4 3 3 4 5 5 5 5 3 3 3 3 4 6 8 9 11 11 12 13 12 12 13 13 13 12 11 11 10 10 9 9 8 7 8 8 8 8 8 7 7 7
4 2 1 2 4 4 5 5 5 4 2 3 4 4 5 6 7 8 9 10 11 12 12 12 12 12 11 11 11 11 11 10 9 9 9 9 7 8 8 7 7 7 7 7
5 3 3 1 3 5 6 5 4 3 2 1 2 3 4 5 7 8 8 9 10 11 11 12 12 11 10 10 11 10 10 9 9 9 8 7 8 7 8 7 5 6 7 7
4 3 4 4 5 6 5 4 4 3 1 1 1 3 4 5 6 7 8 9 9 10 11 11 11 11 10 10 10 10 9 9 8 7 7 7 7 8 10 10 7 8 10 10
4 4 4 4 4 4 3 3 3 2 2 2 2 3 5 6 6 7 8 9 9 10 10 10 10 10 10 10 10 9 8 7 6 6 6 7 7 7 7 9 13 14 15 15
3 3 3 2 2 3 2 2 2 3 3 3 3 4 5 6 7 8 8 8 9 9 9 9 9 9 9 9 9 9 8 7 7 6 6 6 6 7 7 7 6 7 11 17
2 1 1 1 2 2 2 2 3 3 4 4 4 4 6 6 6 6 7 8 8 8 8 8 8 8 8 9 9 8 8 6 6 6 6 6 6 7 7 8 8 7 7 7
2 2 3 3 3 3 4 4 4 4 4 4 4 4 5 6 6 7 7 7 8 8 7 7 7 7 7 7 7 7 6 5 5 6 7 7 6 7 7 7 8 7 7 8
2 4 4 4 4 4 5 5 4 4 4 4 4 5 6 7 7 6 6 6 6 6 6 5 5 5 6 6 6 5 5 5 8 7 7 6 6 7 7 7 8 8 8 6
5 5 5 5 5 5 5 5 6 6 5 4 4 6 7 7 7 7 7 7 7 7 5 4 4 4 4 4 4 4 4 4 5 6 6 6 6 6 7 8 9 10 9 7
9 9 9 9 8 7 6 6 6 6 5 4 5 6 6 7 7 6 6 6 6 5 4 4 3 2 3 2 2 4 4 5 5 5 6 5 7 8 8 8 8 9 9 9
10 10 10 10 9 9 8 7 6 6 5 5 6 6 6 6 6 6 6 5 4 4 3 3 2 1 1 1 2 4 4 4 5 5 5 6 7 7 7 8 8 9 9 9
10 10 10 10 9 9 8 7 7 7 7 6 6 5 5 5 5 4 4 4 4 3 2 2 1 1 0 1 4 4 3 4 5 5 6 7 7 7 8 8 8 8 9 9
9 9 9 9 9 9 8 7 7 7 7 6 6 5 5 4 4 3 3 2 2 2 0 0 0 3 3 4 4 4 4 5 5 5 6 6 7 7 7 8 8 8 8 8
7 7 8 8 7 7 7 7 7 7 6 6 5 4 3 3 2 2 2 2 1 1 2 1 2 2 4 6 5 5 5 6 6 6 6 7 7 7 7 8 8 8 8 8
6 6 6 5 5 6 7 6 6 5 4 4 3 3 2 1 1 1 1 2 1 2 3 0 2 2 7 7 6 6 6 6 6 6 6 7 7 7 7 8 8 8 8 9
5 5 6 6 5 5 4 4 4 4 4 3 3 2 1 2 2 2 2 2 1 3 4 2 5 5 8 7 6 6 6 6 6 7 8 8 8 8 7 7 7 8 8 8
4 4 4 4 5 4 4 4 4 4 4 4 4 3 3 2 2 3 3 4 4 4 6 4 4 6 7 8 7 7 7 6 6 7 8 7 8 8 7 7 9 8 7 7
3 3 2 3 3 4 5 5 5 5 5 5 5 5 5 4 4 4 5 5 4 5 5 6 6 6 7 7 7 7 7 7 7 7 8 7 7 7 7 8 7 7 7 7
Wind_Direction
261 261 244 234 221 212 227 249 264 264 261 251 212 199 187 181 178 179 179 180 180 178 177 177 178 180 181 181 179 181 185 190 189 192 192 197 198 202 207 216 223 224 235 240
241 234 238 245 240 231 234 248 256 264 267 268 210 193 184 183 183 185 185 185 184 182 179 180 180 181 179 181 180 182 189 193 190 192 193 199 203 206 209 218 230 235 241 246
240 222 233 240 237 236 232 237 249 255 261 232 202 197 194 190 190 191 190 187 185 184 183 182 182 181 180 180 179 184 190 192 189 194 197 200 206 208 214 220 226 235 242 247
246 230 242 247 259 257 252 252 252 260 268 246 232 209 201 196 195 194 191 187 185 184 182 181 179 178 180 177 179 185 190 192 192 196 199 200 207 213 219 226 232 236 243 248
244 239 246 235 229 248 249 253 259 261 262 251 222 201 201 197 196 194 189 185 182 183 179 177 177 175 176 178 182 188 192 193 194 197 200 203 209 214 221 228 234 237 238 244
238 250 251 242 103 267 253 243 354 294 267 234 203 220 190 172 184 185 180 176 175 175 173 173 174 173 178 182 185 192 192 193 193 196 202 207 210 216 221 229 238 244 240 243
240 243 246 42 81 211 238 360 12 339 299 230 215 291 79 154 168 170 168 165 166 167 170 170 169 172 181 184 188 191 189 189 192 195 202 208 210 215 224 232 238 247 253 251
234 242 231 60 150 282 352 353 340 329 301 246 226 140 130 146 155 158 159 160 163 164 166 165 168 174 181 186 186 184 185 187 190 196 205 201 206 216 225 234 235 237 242 251
266 292 47 28 349 342 325 316 321 312 298 246 222 192 159 149 151 155 157 159 163 162 160 163 171 178 181 181 178 179 182 187 192 196 205 211 212 216 222 225 241 245 243 250
262 251 333 342 334 334 323 316 318 308 273 223 209 186 170 158 153 154 155 156 160 161 161 164 171 179 181 173 174 178 184 188 193 200 206 209 223 228 233 236 240 248 255 261
256 283 280 335 344 340 333 328 327 322 314 245 205 179 165 155 153 153 152 155 161 163 164 165 169 175 176 168 171 181 188 192 199 205 213 218 221 236 244 246 258 266 273 277
301 332 311 338 342 337 333 342 346 343 11 32 160 157 151 145 145 148 149 151 158 161 162 162 166 170 170 168 176 186 192 198 205 210 208 220 225 226 221 237 234 229 243 263
301 319 312 307 319 333 336 345 359 19 44 79 104 133 141 135 137 141 146 153 158 160 160 160 164 167 167 171 179 188 199 202 214 218 214 223 234 244 245 228 228 235 236 236
280 270 267 318 350 354 7 14 29 61 76 85 103 122 132 131 133 140 147 152 153 153 154 157 161 164 166 169 178 189 202 200 216 222 231 236 239 246 253 260 254 247 233 228
2 314 295 17 15 27 54 73 78 77 83 85 99 118 126 128 131 136 137 139 141 144 148 153 157 160 165 171 179 192 207 211 213 229 233 238 245 249 255 259 264 269 272 240
10 57 85 78 61 54 61 70 74 68 73 85 96 106 113 118 121 126 133 140 144 145 147 150 154 157 164 175 184 193 206 215 230 237 239 241 243 251 258 262 265 269 272 278
58 73 73 69 66 65 66 65 66 64 64 71 85 102 109 109 110 115 125 131 132 132 137 145 150 154 166 181 202 212 214 201 206 238 249 254 257 261 267 272 275 277 279 286
65 64 63 59 57 65 67 67 68 66 62 69 89 101 104 106 108 111 116 121 120 114 110 117 129 151 165 179 205 233 232 235 228 240 252 256 264 267 269 271 274 277 283 277
69 69 67 63 58 58 59 64 69 69 70 79 86 91 97 102 105 111 117 120 119 115 104 102 115 164 161 164 232 230 246 252 249 248 256 254 256 264 269 272 276 280 280 281
68 67 68 65 57 57 57 56 62 68 70 80 89 96 98 102 109 113 111 102 83 75 91 94 131 152 166 143 256 256 258 265 270 271 270 271 271 273 276 278 280 280 280 282
67 66 63 61 56 52 52 51 52 59 63 70 80 88 93 97 100 103 108 99 86 71 79 123 195 235 314 326 251 266 272 275 275 276 278 280 282 282 281 280 281 283 287 290
61 59 55 53 54 49 43 46 50 53 56 60 67 75 86 92 93 87 82 73 84 77 331 242 21 49 2 297 275 285 284 283 284 285 285 286 288 289 289 290 289 290 292 292
53 51 47 45 48 51 48 45 45 46 48 49 53 56 55 47 41 49 64 71 58 38 282 309 66 68 302 273 275 279 282 286 291 294 294 294 292 291 290 291 292 294 296 297
49 51 47 41 43 46 41 34 32 33 31 31 37 30 6 349 335 336 4 112 130 283 284 97 162 243 270 270 277 281 284 287 289 293 296 295 293 293 295 295 294 297 298 299
40 38 33 21 23 29 28 15 13 11 360 6 3 9 338 329 323 336 328 308 257 262 277 227 203 241 267 279 283 286 287 294 301 302 295 293 293 295 297 298 300 299 298 300
30 25 28 15 9 352 350 353 354 357 353 351 345 344 334 322 310 301 289 288 289 278 280 283 270 258 271 283 287 290 291 288 280 279 289 294 293 295 297 301 302 300 299 299
21 22 8 355 359 352 345 344 343 346 347 346 340 336 327 318 309 307 304 300 296 292 293 292 289 287 287 290 293 293 291 291 291 292 293 294 295 296 297 297 294 293 294 294